CAPE
86 93 108 125 119 117 137 185 164 165 160 163 163 100 83 65 19 0 0 8 59 58 0 0 0 0 0 0 0 0 0 0 0 0 0 0 0 0 0 0 0 0 0 0 0 0 0
111 114 124 139 145 134 193 207 237 209 193 217 207 172 124 68 26 0 0 1 38 76 38 0 0 0 0 0 0 0 0 0 0 0 0 0 0 0 0 0 0 0 0 0 0 0 0
123 139 138 160 178 174 218 233 289 278 232 224 222 183 167 78 54 2 8 12 21 87 51 0 0 0 0 0 0 0 0 0 0 0 0 0 0 0 0 0 0 0 0 0 0 0 0
125 126 136 189 166 184 222 255 327 326 307 268 262 234 205 138 69 69 54 24 1 78 75 0 1 0 0 0 0 0 0 0 0 0 0 0 0 0 0 0 0 0 0 0 0 0 0
135 143 154 188 182 232 242 259 259 280 303 293 273 247 223 123 42 69 37 19 4 49 61 4 53 0 0 0 0 0 0 0 0 0 0 0 0 0 0 0 0 0 0 0 0 0 0
140 163 192 213 235 258 253 310 347 238 238 275 223 242 203 118 21 7 32 5 0 97 44 34 13 0 0 0 0 0 0 0 0 0 0 0 0 0 0 0 0 0 0 0 0 0 0
145 164 189 217 251 260 285 264 192 179 211 217 187 247 228 101 40 59 2 0 131 41 49 0 0 0 0 0 0 0 0 0 0 0 0 0 0 0 0 0 0 0 0 0 0 0 0
152 164 209 230 255 234 203 187 136 142 224 223 169 169 171 130 106 67 10 11 6 26 22 2 0 0 0 0 0 0 0 0 0 0 0 0 0 0 0 0 0 0 0 0 0 0 0
142 178 212 252 271 244 213 99 60 66 92 186 205 174 178 174 95 42 7 9 17 14 30 2 0 0 0 0 0 0 0 0 0 0 0 0 0 0 0 0 0 0 0 0 0 0 0
129 175 200 254 268 268 259 197 108 202 195 183 207 176 184 144 102 9 10 0 2 5 6 0 0 0 0 0 0 0 0 0 0 0 0 0 0 0 0 0 0 0 0 0 0 0 0
163 151 177 196 238 241 216 199 217 260 233 215 189 153 125 67 61 16 1 0 0 6 9 0 0 0 0 0 0 0 0 0 0 0 0 0 0 0 0 0 0 0 0 0 0 0 0
132 148 119 139 152 219 227 203 217 236 190 194 141 105 84 60 28 30 0 0 0 12 0 0 0 0 0 0 0 0 0 0 0 0 0 0 0 0 0 0 0 0 0 0 0 0 0
108 103 144 39 124 178 224 230 236 237 224 196 158 110 99 41 16 1 0 0 2 17 0 0 1 0 0 0 0 0 0 0 0 0 0 0 0 0 0 0 0 0 0 0 0 0 0
53 119 124 145 36 160 189 216 217 209 186 168 117 41 2 1 21 22 12 11 0 2 2 0 0 0 0 0 0 0 0 0 0 0 0 0 0 0 0 0 0 0 0 0 0 0 0
41 57 86 118 112 90 59 118 185 214 190 105 30 3 6 1 0 35 35 6 0 0 4 5 11 7 0 0 0 0 0 0 0 0 0 0 0 0 0 0 0 0 0 0 0 0 0
42 40 55 67 93 88 117 117 25 27 128 193 121 9 2 0 36 11 12 0 0 0 0 1 32 2 0 0 0 0 0 0 0 0 0 0 0 0 0 0 0 0 0 0 0 0 0
86 66 38 31 41 28 34 115 101 52 9 120 67 9 0 1 90 11 6 0 0 0 0 0 5 9 1 0 0 0 0 0 0 0 0 0 0 0 0 0 0 0 0 0 0 0 0
60 88 94 75 29 21 20 27 84 70 46 31 47 11 45 42 21 15 24 5 0 0 0 3 22 15 1 0 0 0 0 0 0 0 0 0 0 0 0 0 0 0 0 0 0 0 0
47 80 111 91 50 25 27 34 19 38 43 74 42 17 5 21 23 66 40 27 11 1 6 17 32 3 0 0 0 0 0 0 0 0 0 0 0 0 0 0 0 0 0 0 0 0 0
37 53 100 105 92 115 70 90 87 88 60 123 28 13 1 22 10 54 30 15 15 5 0 14 14 2 0 3 0 0 0 0 0 0 0 0 0 0 0 0 0 0 0 0 0 0 0
26 32 52 84 124 125 127 133 102 50 53 114 7 20 9 13 13 27 24 14 9 8 36 5 2 2 0 35 0 0 0 0 0 0 0 0 0 0 0 0 0 0 0 0 0 0 0
49 26 40 43 61 80 98 123 121 69 6 72 41 26 28 11 8 7 13 7 2 0 1 11 6 0 0 0 0 0 0 0 0 0 0 0 0 0 0 0 0 0 0 0 0 0 0
58 49 30 32 30 40 45 93 103 84 54 45 54 27 8 6 18 20 29 39 17 15 0 0 0 0 0 0 0 0 0 0 0 0 0 0 0 0 0 0 0 0 0 0 0 0 0
43 38 41 32 23 32 26 31 39 66 72 92 92 57 55 13 33 19 22 23 11 2 6 3 0 0 0 0 0 0 0 0 0 0 0 0 0 0 0 0 0 0 0 0 0 0 0
35 34 41 42 37 20 24 19 30 34 57 83 42 47 30 19 22 10 3 8 5 4 8 10 0 0 0 0 0 4 1 1 0 0 0 0 0 0 0 0 0 0 0 0 0 0 0
28 28 37 37 35 36 19 16 17 19 54 78 20 49 28 10 12 6 3 8 6 9 0 3 0 0 0 0 15 54 51 20 0 0 0 0 0 0 0 16 1 0 0 0 0 0 0
27 25 30 34 36 32 30 14 15 13 11 65 34 30 30 8 24 3 7 5 13 10 8 3 1 1 0 3 18 1 0 0 4 0 0 0 0 0 0 42 0 0 0 0 0 0 0
21 20 22 30 34 31 28 21 16 12 6 47 19 23 13 19 11 3 5 8 4 7 4 0 2 0 0 1 27 0 0 0 0 0 0 0 0 0 0 8 0 0 0 0 0 0 0
16 15 15 21 29 27 22 18 11 10 11 35 12 18 8 8 8 5 7 6 3 7 17 4 3 5 2 1 3 0 0 0 0 0 0 0 0 0 0 0 0 0 0 0 0 0 0
CIN
-0 -0 -0 -0 -0 -0 -0 -0 -0 -0 -0 -0 -0 -0 -0 -0 -4 -0 -0 -0 -0 -0 -0 -0 -0 -0 -0 -0 -0 -0 -0 -0 -0 -0 -0 -0 -0 -0 -0 -0 -0 -0 -0 -0 -0 -0 -0
-0 -0 -0 -0 -0 -0 -0 -0 -0 -0 -0 -0 -0 -0 -0 -8 -17 -0 -0 -0 -9 -0 -0 -0 -0 -0 -0 -0 -0 -0 -0 -0 -0 -0 -0 -0 -0 -0 -0 -0 -0 -0 -0 -0 -0 -0 -0
-0 -0 -0 -0 -0 -0 -0 -0 -0 -0 -0 -0 -0 -0 -0 -2 -0 -9 -9 -0 -5 -0 -0 -0 -0 -0 -0 -0 -0 -0 -0 -0 -0 -0 -0 -0 -0 -0 -0 -0 -0 -0 -0 -0 -0 -0 -0
-0 -0 -0 -0 -1 -0 -0 -0 -0 -0 -0 -0 -0 -0 -0 -0 -2 -0 -0 -0 -0 -0 -1 -0 -0 -0 -0 -0 -0 -0 -0 -0 -0 -0 -0 -0 -0 -0 -0 -0 -0 -0 -0 -0 -0 -0 -0
-0 -0 -0 -0 -0 -0 -0 -0 -6 -7 -0 -0 -0 -0 -0 -0 -5 -0 -0 -9 -0 -14 -1 -3 -0 -0 -0 -0 -0 -0 -0 -0 -0 -0 -0 -0 -0 -0 -0 -0 -0 -0 -0 -0 -0 -0 -0
-0 -0 -0 -0 -0 -0 -0 -0 -1 -9 -3 -0 -0 -0 -0 -0 -13 -18 -0 -14 -0 -25 -0 -0 -0 -0 -0 -0 -0 -0 -0 -0 -0 -0 -0 -0 -0 -0 -0 -0 -0 -0 -0 -0 -0 -0 -0
-0 -0 -0 -0 -0 -0 -0 -4 -7 -10 -5 -0 -0 -0 -0 -0 -19 -1 -3 -0 -0 -0 -0 -0 -0 -0 -0 -0 -0 -0 -0 -0 -0 -0 -0 -0 -0 -0 -0 -0 -0 -0 -0 -0 -0 -0 -0
-0 -0 -0 -0 -0 -0 -0 -8 -13 -11 -3 -2 -0 -0 -0 -0 -4 -1 -12 -0 -0 -0 -0 -1 -0 -0 -0 -0 -0 -0 -0 -0 -0 -0 -0 -0 -0 -0 -0 -0 -0 -0 -0 -0 -0 -0 -0
-0 -0 -0 -0 -0 -0 -1 -6 -20 -12 -15 -0 -0 -0 -0 -0 -0 -6 -2 -0 -0 -0 -0 -2 -0 -0 -0 -0 -0 -0 -0 -0 -0 -0 -0 -0 -0 -0 -0 -0 -0 -0 -0 -0 -0 -0 -0
-0 -0 -0 -0 -0 -0 -3 -4 -8 -9 -1 -1 -0 -0 -0 -2 -0 -9 -0 -0 -18 -0 -0 -0 -0 -0 -0 -0 -0 -0 -0 -0 -0 -0 -0 -0 -0 -0 -0 -0 -0 -0 -0 -0 -0 -0 -0
-0 -0 -0 -0 -0 -0 -0 -3 -5 -4 -0 -0 -0 -1 -0 -1 -0 -14 -0 -0 -0 -0 -0 -0 -0 -0 -0 -0 -0 -0 -0 -0 -0 -0 -0 -0 -0 -0 -0 -0 -0 -0 -0 -0 -0 -0 -0
-0 -0 -0 -0 -0 -0 -0 -1 -1 -0 -0 -0 -0 -0 -5 -0 -0 -0 -0 -0 -0 -0 -0 -0 -0 -0 -0 -0 -0 -0 -0 -0 -0 -0 -0 -0 -0 -0 -0 -0 -0 -0 -0 -0 -0 -0 -0
-0 -0 -0 -1 -0 -0 -0 -0 -0 -0 -0 -0 -0 -0 -1 -0 -0 -9 -0 -0 -2 -0 -0 -0 -0 -0 -0 -0 -0 -0 -0 -0 -0 -0 -0 -0 -0 -0 -0 -0 -0 -0 -0 -0 -0 -0 -0
-0 -0 -0 -0 -5 -0 -0 -0 -0 -0 -0 -0 -0 -9 -17 -0 -0 -1 -20 -5 -0 -0 -0 -1 -0 -0 -0 -0 -0 -0 -0 -0 -0 -0 -0 -0 -0 -0 -0 -0 -0 -0 -0 -0 -0 -0 -0
-0 -0 -0 -0 -0 -0 -2 -0 -0 -0 -0 -0 -47 -0 -0 -6 -0 -1 -1 -0 -0 -0 -0 -0 -7 -0 -0 -0 -0 -0 -0 -0 -0 -0 -0 -0 -0 -0 -0 -0 -0 -0 -0 -0 -0 -0 -0
-0 -0 -0 -0 -0 -0 -0 -0 -1 -0 -0 -0 -6 -0 -0 -0 -33 -2 -0 -0 -0 -0 -0 -0 -0 -0 -0 -0 -0 -0 -0 -0 -0 -0 -0 -0 -0 -0 -0 -0 -0 -0 -0 -0 -0 -0 -0
-0 -0 -0 -0 -0 -0 -0 -0 -0 -0 -0 -1 -17 -48 -0 -55 -9 -1 -0 -0 -0 -0 -0 -0 -0 -5 -0 -0 -0 -0 -0 -0 -0 -0 -0 -0 -0 -0 -0 -0 -0 -0 -0 -0 -0 -0 -0
-0 -0 -0 -0 -0 -0 -0 -0 -0 -0 -0 -4 -43 -0 -21 -8 -0 -0 -0 -0 -0 -0 -0 -0 -0 -0 -0 -0 -0 -0 -0 -0 -0 -0 -0 -0 -0 -0 -0 -0 -0 -0 -0 -0 -0 -0 -0
-0 -0 -0 -0 -0 -0 -0 -4 -0 -4 -0 -17 -0 -0 -1 -0 -0 -0 -0 -0 -0 -0 -0 -0 -0 -0 -0 -0 -0 -0 -0 -0 -0 -0 -0 -0 -0 -0 -0 -0 -0 -0 -0 -0 -0 -0 -0
-0 -0 -0 -0 -0 -0 -0 -0 -0 -0 -0 -0 -0 -0 -0 -0 -0 -0 -0 -0 -0 -5 -0 -5 -0 -0 -0 -10 -0 -0 -0 -0 -0 -0 -0 -0 -0 -0 -0 -0 -0 -0 -0 -0 -0 -0 -0
-0 -0 -0 -0 -0 -0 -0 -0 -0 -0 -0 -0 -5 -0 -0 -0 -0 -0 -0 -0 -0 -2 -0 -4 -0 -0 -0 -2 -15 -0 -0 -0 -0 -0 -0 -0 -0 -0 -0 -0 -0 -0 -0 -0 -0 -0 -0
-0 -0 -0 -0 -0 -0 -0 -0 -0 -1 -0 -0 -0 -5 -0 -0 -0 -0 -0 -0 -0 -0 -0 -0 -0 -0 -0 -0 -0 -0 -0 -0 -0 -0 -0 -0 -0 -0 -0 -0 -0 -0 -0 -0 -0 -0 -0
-0 -0 -0 -0 -0 -0 -0 -0 -0 -0 -0 -0 -0 -0 -2 -1 -0 -0 -0 -0 -0 -0 -0 -0 -0 -2 -0 -0 -0 -0 -0 -0 -0 -0 -0 -0 -0 -0 -0 -0 -0 -0 -0 -0 -0 -0 -0
-0 -0 -0 -0 -0 -0 -0 -0 -0 -0 -0 -0 -0 -0 -0 -0 -0 -0 -0 -0 -0 -0 -0 -0 -0 -0 -0 -0 -0 -0 -0 -0 -0 -0 -0 -0 -0 -0 -0 -0 -0 -0 -0 -0 -0 -0 -0
-0 -0 -0 -0 -0 -0 -0 -0 -0 -0 -0 -0 -0 -0 -0 -0 -0 -0 -0 -0 -0 -0 -0 -0 -0 -0 -0 -0 -0 -17 -0 -45 -0 -0 -0 -0 -0 -0 -0 -0 -0 -0 -0 -0 -0 -0 -0
-0 -0 -0 -0 -0 -0 -0 -0 -0 -0 -0 -0 -3 -0 -1 -0 -0 -0 -0 -0 -0 -0 -0 -0 -0 -0 -0 -0 -47 -0 -0 -2 -0 -0 -0 -0 -0 -0 -0 -2 -1 -0 -0 -0 -0 -0 -0
-0 -0 -0 -0 -0 -0 -0 -0 -0 -0 -0 -0 -2 -1 -0 -0 -0 -0 -0 -0 -0 -0 -0 -0 -0 -0 -0 -9 -23 -0 -0 -0 -7 -0 -0 -0 -0 -15 -21 -35 -0 -0 -0 -0 -0 -0 -0
-0 -0 -0 -0 -0 -0 -0 -0 -0 -0 -0 -1 -1 -1 -0 -0 -0 -0 -0 -0 -0 -0 -0 -0 -0 -0 -0 -0 -16 -0 -0 -0 -0 -0 -0 -0 -0 -3 -3 -26 -3 -0 -0 -0 -0 -0 -0
-0 -0 -0 -0 -0 -0 -0 -0 -0 -0 -0 -0 -4 -2 -1 -0 -0 -0 -0 -0 -0 -0 -0 -0 -0 -0 -0 -0 -0 -0 -0 -0 -0 -0 -0 -0 -0 -0 -0 -0 -0 -0 -0 -0 -0 -0 -0
Wind_Speed
26 27 26 23 21 18 16 16 14 12 13 13 13 15 15 14 16 15 20 25 21 11 9 4 2 3 3 7 8 2 10 17 15 12 15 12 17 8 10 8 8 4 6 5 5 6 5
27 27 26 25 21 16 15 15 14 10 12 12 13 12 14 14 13 15 18 22 23 14 6 7 3 4 4 11 2 7 12 12 10 13 12 12 13 7 5 7 10 8 6 5 5 7 4
28 27 25 22 15 12 13 14 13 11 11 12 12 13 13 12 10 13 16 18 23 15 8 7 6 5 5 13 4 7 9 6 7 7 10 7 7 7 9 8 4 6 7 3 6 7 4
28 27 24 19 13 9 10 14 13 11 10 11 10 11 11 11 13 11 12 19 21 16 8 6 8 6 8 2 3 7 7 5 3 1 2 7 6 6 2 9 5 7 4 7 7 8 4
27 26 24 19 14 10 10 13 11 10 7 9 10 11 13 11 13 12 10 19 22 16 8 4 6 8 6 6 6 7 6 10 9 3 2 5 4 4 6 10 5 6 11 13 5 9 5
28 25 24 19 15 14 13 12 11 7 10 7 8 9 11 10 11 17 8 16 20 8 7 5 6 7 7 7 6 6 2 13 5 11 6 4 4 8 8 13 13 14 8 8 10 10 7
26 26 24 21 17 16 15 13 8 7 6 8 8 9 10 10 6 8 8 5 5 2 8 12 11 5 8 7 6 8 5 7 7 13 13 6 10 19 21 17 2 10 13 11 3 6 8
28 26 25 22 20 16 14 9 3 5 8 8 9 9 11 8 5 1 2 3 8 5 8 21 10 16 1 6 6 10 10 13 12 15 11 7 18 15 13 13 6 9 12 7 4 4 4
28 27 26 24 21 17 14 7 2 3 4 7 9 9 11 11 3 3 3 6 11 18 5 11 20 12 6 8 7 19 17 8 14 14 20 14 5 13 13 11 12 7 12 10 4 7 3
28 27 27 25 23 20 16 11 7 7 6 8 10 10 9 10 3 1 1 3 6 11 3 6 17 9 8 8 6 11 18 11 6 19 14 11 4 17 14 16 17 14 6 9 12 12 6
29 27 26 26 24 21 18 14 12 10 10 11 10 8 7 7 4 2 2 1 3 3 7 10 13 7 14 18 15 9 12 7 10 10 9 8 12 18 18 16 18 6 10 9 5 4 3
30 29 26 26 25 23 19 15 12 12 12 9 10 9 9 2 3 1 5 4 4 6 9 7 11 15 21 19 6 12 13 4 4 7 7 3 1 7 9 4 15 19 12 9 5 2 4
30 28 27 25 25 24 22 19 17 16 15 13 13 12 11 6 2 6 5 3 3 8 8 9 12 19 28 17 15 14 22 19 14 13 13 5 5 2 8 13 12 7 17 5 4 5 7
30 29 27 27 24 24 24 21 18 16 15 15 16 15 8 8 6 7 2 2 0 8 12 2 11 20 27 24 20 14 21 23 21 17 13 13 9 11 7 6 13 18 16 7 8 7 7
27 29 28 26 26 25 23 22 21 20 17 18 12 5 4 2 7 6 2 3 9 2 7 10 6 21 17 23 18 15 21 24 23 16 11 14 8 2 1 4 12 10 10 3 8 2 3
26 26 28 28 27 25 25 24 22 22 20 21 5 4 4 2 8 3 3 8 9 12 7 4 12 20 21 25 19 24 25 23 18 18 6 10 8 4 2 3 3 6 14 6 3 9 7
30 28 25 24 25 25 26 24 24 22 22 17 3 5 1 5 6 3 5 7 7 9 8 9 8 16 21 23 22 28 24 17 23 20 6 8 5 7 6 10 14 6 8 4 3 4 8
30 30 30 23 22 23 24 23 24 24 22 8 3 4 4 3 3 2 7 5 6 6 11 9 8 11 18 21 13 23 26 22 24 23 15 8 5 8 15 2 4 7 11 18 9 7 2
30 30 32 28 22 23 23 24 23 23 21 7 3 3 1 1 3 4 7 13 13 17 10 11 8 16 5 18 14 16 18 14 26 26 24 13 8 8 4 4 3 8 5 13 3 3 11
30 31 32 31 31 23 22 22 21 21 21 6 2 4 2 3 1 5 11 15 14 12 16 11 9 18 7 17 13 17 11 3 16 21 6 20 8 14 14 11 12 12 13 11 13 9 11
28 31 32 31 32 28 27 24 21 20 21 3 1 1 2 5 6 10 11 8 12 7 13 9 10 16 11 10 14 10 7 5 5 8 7 11 14 16 19 3 10 9 19 19 17 23 14
28 27 30 30 32 31 31 28 25 22 17 1 3 3 2 10 8 10 12 3 7 8 7 9 16 17 15 6 10 12 14 9 9 7 16 4 3 8 7 6 8 7 15 22 27 26 22
30 31 29 28 30 32 30 29 27 25 13 2 2 2 3 6 6 7 4 5 10 14 13 20 9 7 13 19 3 3 10 7 7 12 16 10 8 5 11 6 4 4 18 22 20 21 19
30 30 30 29 27 28 28 29 29 26 19 4 5 4 4 9 8 10 12 18 21 19 18 10 9 15 3 16 16 11 13 12 7 6 3 6 9 2 4 6 9 6 4 7 17 11 13
29 30 30 30 29 27 27 26 27 27 24 6 5 3 3 7 13 15 13 16 15 16 15 12 10 2 14 5 6 5 2 3 4 4 3 6 6 4 6 8 2 4 7 9 14 13 15
28 28 30 30 29 29 28 26 26 27 27 8 5 4 3 6 2 6 9 10 8 8 1 2 3 9 1 1 4 6 7 7 7 3 4 2 4 4 6 10 12 10 7 4 3 9 15
29 28 29 30 30 29 28 27 26 26 27 8 3 1 3 5 3 3 4 6 7 6 6 2 5 2 2 3 5 4 4 3 11 15 8 6 7 10 6 3 5 2 6 4 11 4 16
29 29 29 31 31 30 29 27 26 25 25 10 4 2 4 4 6 2 3 4 5 3 5 6 2 2 1 2 3 3 3 5 4 4 9 10 10 6 1 4 13 7 5 7 2 4 10
29 30 30 31 32 31 29 28 26 24 22 17 3 2 7 4 4 2 3 4 3 5 5 4 4 2 2 4 1 4 3 4 6 7 0 5 2 8 5 3 3 4 4 3 2 10 8
Wind_Direction
329 321 315 299 287 281 278 282 286 283 288 295 303 311 308 303 317 332 336 329 316 254 261 246 266 108 133 234 250 360 141 149 149 166 166 164 171 178 189 174 155 225 179 172 144 154 137
336 329 321 309 295 287 272 275 278 276 285 286 298 309 322 311 311 320 321 318 317 262 244 255 200 176 146 246 14 159 132 143 164 174 172 167 185 183 161 180 196 175 155 155 167 161 144
346 343 338 326 303 290 269 270 268 267 280 284 298 314 319 317 304 314 321 316 320 264 231 252 229 205 205 233 347 157 144 167 171 191 171 178 151 181 145 148 146 136 133 155 177 176 154
351 351 350 345 331 305 283 276 266 267 279 288 294 302 308 334 323 304 316 314 319 286 228 230 251 203 247 117 165 173 158 121 159 224 219 149 148 108 160 124 118 158 180 188 165 172 156
355 355 356 351 347 333 311 293 275 272 295 301 303 311 313 314 335 329 321 309 311 283 203 201 192 228 230 140 159 198 189 158 142 118 79 122 149 131 146 158 151 194 196 209 171 205 158
356 356 357 354 348 340 328 301 285 307 309 304 311 323 323 319 326 340 322 311 289 234 187 171 252 198 193 197 153 161 200 152 149 139 126 154 152 175 176 190 193 180 193 199 200 177 201
0 357 356 355 350 343 333 327 290 279 312 319 333 343 340 320 310 0 5 355 170 208 213 190 188 254 138 124 133 166 167 149 143 177 176 181 191 202 189 197 202 190 204 195 153 153 189
359 1 358 355 351 349 340 338 17 20 339 322 335 330 331 320 265 47 82 254 356 331 267 230 232 228 173 170 137 164 173 176 180 188 148 161 214 199 186 180 156 176 185 171 106 119 229
2 1 1 359 0 353 354 353 304 323 322 331 335 323 328 325 329 108 116 311 331 342 261 210 211 209 173 183 183 175 182 165 186 190 195 186 168 151 173 179 183 193 202 179 164 141 100
6 6 4 6 2 0 2 354 344 324 340 333 326 318 325 334 258 151 167 328 355 319 254 216 186 209 184 175 190 170 186 177 182 204 192 213 138 171 174 190 192 203 194 152 143 166 203
6 4 6 7 8 2 354 360 355 350 347 342 329 336 332 330 305 236 153 260 6 253 221 175 163 177 164 180 126 195 176 176 181 164 184 182 163 171 181 194 185 181 142 128 143 130 188
5 4 7 7 7 6 3 0 355 345 343 347 340 337 334 311 291 214 203 256 77 228 214 161 151 168 170 188 147 135 172 175 126 145 209 130 88 181 183 123 181 138 115 75 65 86 248
4 4 4 7 10 8 3 5 1 355 352 346 334 322 304 276 263 174 246 309 34 257 137 162 177 173 179 179 161 175 180 186 174 168 176 147 154 131 144 100 138 180 154 128 171 193 234
356 359 5 4 6 11 9 3 1 355 353 346 334 322 278 259 203 175 222 266 84 289 271 303 180 194 180 169 188 176 176 185 207 213 167 177 188 184 172 181 172 182 185 163 181 186 198
359 356 358 4 6 5 5 5 4 3 353 335 333 314 283 241 224 184 185 200 195 242 314 335 180 182 199 175 166 174 185 192 193 203 185 188 170 101 206 149 167 170 209 84 104 77 174
3 356 354 353 1 2 2 359 356 353 352 338 316 313 292 119 169 174 196 215 223 209 188 217 214 188 181 190 177 189 185 195 190 194 224 183 163 222 111 136 71 207 144 153 185 165 217
358 358 354 350 353 354 351 357 355 353 347 343 314 317 73 148 161 181 230 244 255 265 212 172 273 202 192 184 197 195 185 172 189 184 180 171 223 154 162 214 169 150 185 199 196 205 205
0 358 355 347 348 349 346 349 354 352 349 352 332 306 50 120 256 198 242 240 285 284 183 230 270 271 195 180 197 197 195 194 187 171 186 177 114 162 194 54 312 235 211 190 197 181 216
359 356 2 358 359 353 344 348 345 347 348 334 304 280 39 143 244 230 263 258 255 262 223 190 231 252 228 179 190 199 208 213 186 176 183 172 175 125 146 232 195 220 177 211 193 117 194
1 355 1 7 2 350 348 345 343 346 341 343 298 297 262 216 233 278 299 279 261 234 247 221 220 250 271 185 188 192 196 217 198 207 195 162 178 206 203 206 140 198 194 204 202 211 205
5 358 356 4 359 1 3 357 358 353 342 340 125 349 305 299 301 287 284 268 268 274 231 215 248 233 220 189 184 188 147 141 173 199 191 191 211 212 225 186 177 192 188 187 198 224 221
355 1 357 357 356 4 1 3 2 356 351 356 328 298 206 282 282 273 283 215 236 262 234 212 225 204 230 187 191 182 164 179 174 179 190 197 184 180 213 185 196 199 201 196 207 220 231
0 358 358 358 354 354 355 358 2 8 5 340 280 249 252 263 278 269 264 293 284 288 256 230 243 211 219 220 194 185 166 138 167 162 179 152 136 145 217 151 122 258 205 201 214 219 222
359 359 356 354 352 351 352 351 350 359 11 323 307 290 269 280 282 288 285 288 284 281 250 282 214 218 188 121 106 71 72 71 83 61 69 152 129 77 126 140 205 242 25 218 203 209 206
357 358 355 354 351 347 347 347 346 345 351 341 313 291 287 280 302 298 307 300 296 275 232 217 201 228 166 146 99 97 52 69 42 15 156 187 122 118 157 204 13 177 193 176 180 225 200
355 355 353 351 350 347 343 344 342 342 339 336 318 314 311 308 256 302 308 306 307 326 230 140 26 125 311 185 139 159 178 171 177 147 17 105 82 128 175 200 219 244 160 169 165 247 180
352 352 350 348 347 345 342 340 340 339 333 343 286 12 273 263 250 316 315 313 316 303 291 137 151 197 133 222 109 178 162 140 161 172 169 163 194 204 192 222 278 106 137 162 176 227 170
351 349 348 346 345 344 340 337 336 337 331 341 289 36 311 262 289 282 288 297 313 325 320 333 143 241 113 97 131 173 163 181 137 145 176 165 166 192 182 193 242 151 115 203 62 59 144
349 348 346 344 343 342 340 335 333 333 328 342 285 324 302 240 292 304 272 274 248 286 293 295 306 305 13 99 180 126 165 179 154 172 139 191 163 167 217 201 72 33 12 79 123 132 131